Total_Precipitation_Accumulation
0.04 0.11 0.35 0.43 0.39 0.39 0.43 0.45 0.42 0.42 0.45 0.49 0.49 0.50 0.48 0.47 0.43 0.42 0.43 0.44 0.43 0.48 0.57 0.66 0.71 0.67 0.62 0.57 0.54 0.49 0.46 0.42 0.37 0.31 0.31 0.35 0.34 0.30 0.25 0.23 0.20 0.30 0.38
0.04 0.11 0.29 0.35 0.36 0.40 0.43 0.41 0.38 0.38 0.40 0.43 0.43 0.46 0.48 0.45 0.43 0.44 0.44 0.45 0.47 0.50 0.55 0.62 0.65 0.64 0.58 0.55 0.57 0.51 0.43 0.33 0.27 0.22 0.21 0.22 0.30 0.33 0.31 0.29 0.27 0.36 0.37
0.05 0.10 0.23 0.32 0.35 0.42 0.43 0.39 0.36 0.34 0.35 0.40 0.44 0.46 0.47 0.46 0.44 0.45 0.44 0.45 0.50 0.55 0.57 0.60 0.58 0.55 0.54 0.56 0.52 0.49 0.43 0.32 0.20 0.17 0.15 0.21 0.31 0.37 0.38 0.33 0.31 0.35 0.35
0.06 0.11 0.17 0.31 0.35 0.43 0.44 0.42 0.39 0.36 0.36 0.41 0.45 0.46 0.48 0.51 0.50 0.45 0.44 0.50 0.54 0.59 0.63 0.61 0.55 0.56 0.58 0.55 0.45 0.42 0.43 0.36 0.21 0.13 0.09 0.20 0.38 0.50 0.44 0.40 0.35 0.35 0.38
0.07 0.11 0.20 0.32 0.36 0.42 0.47 0.50 0.49 0.46 0.45 0.45 0.46 0.44 0.47 0.49 0.50 0.47 0.48 0.53 0.55 0.55 0.57 0.59 0.56 0.59 0.56 0.50 0.41 0.38 0.48 0.47 0.28 0.09 0.09 0.14 0.32 0.65 0.48 0.44 0.41 0.37 0.37
0.07 0.12 0.22 0.35 0.41 0.45 0.50 0.57 0.57 0.55 0.56 0.56 0.53 0.52 0.54 0.55 0.54 0.50 0.48 0.48 0.47 0.49 0.53 0.53 0.52 0.56 0.56 0.50 0.41 0.43 0.54 0.58 0.30 0.13 0.15 0.17 0.32 0.65 0.57 0.50 0.45 0.40 0.38
0.07 0.12 0.21 0.37 0.46 0.48 0.52 0.57 0.61 0.64 0.69 0.69 0.69 0.67 0.64 0.63 0.61 0.59 0.56 0.50 0.43 0.44 0.47 0.50 0.50 0.52 0.55 0.52 0.47 0.56 0.65 0.60 0.32 0.29 0.21 0.20 0.36 0.62 0.66 0.61 0.53 0.48 0.43
0.09 0.15 0.25 0.45 0.54 0.52 0.54 0.61 0.66 0.66 0.71 0.73 0.75 0.76 0.71 0.67 0.65 0.68 0.67 0.57 0.46 0.39 0.38 0.39 0.41 0.46 0.48 0.47 0.50 0.63 0.64 0.42 0.20 0.15 0.14 0.19 0.36 0.62 0.87 0.82 0.65 0.55 0.48
0.16 0.20 0.30 0.44 0.57 0.62 0.62 0.63 0.65 0.67 0.70 0.73 0.75 0.78 0.74 0.66 0.65 0.65 0.65 0.59 0.49 0.43 0.39 0.36 0.35 0.37 0.38 0.41 0.46 0.49 0.43 0.28 0.16 0.20 0.17 0.23 0.36 0.69 1.03 0.99 0.77 0.62 0.54
0.24 0.29 0.36 0.48 0.56 0.60 0.65 0.66 0.64 0.65 0.66 0.69 0.72 0.74 0.68 0.63 0.62 0.60 0.55 0.50 0.47 0.48 0.45 0.38 0.36 0.35 0.32 0.30 0.32 0.33 0.28 0.22 0.14 0.20 0.25 0.26 0.29 0.64 1.04 1.05 0.92 0.76 0.67
0.34 0.42 0.47 0.55 0.64 0.68 0.69 0.68 0.70 0.69 0.69 0.68 0.68 0.67 0.67 0.65 0.63 0.59 0.52 0.47 0.47 0.47 0.44 0.40 0.37 0.34 0.29 0.24 0.22 0.22 0.19 0.15 0.17 0.24 0.28 0.25 0.32 0.65 1.05 1.12 1.03 0.91 0.85
0.33 0.41 0.49 0.60 0.67 0.75 0.73 0.74 0.78 0.71 0.69 0.65 0.59 0.57 0.60 0.62 0.62 0.56 0.55 0.51 0.49 0.49 0.47 0.46 0.42 0.37 0.31 0.24 0.25 0.25 0.17 0.13 0.19 0.19 0.20 0.19 0.35 0.68 1.03 1.16 1.14 1.04 1.00
0.32 0.40 0.50 0.60 0.71 0.78 0.76 0.75 0.76 0.71 0.67 0.65 0.61 0.64 0.69 0.69 0.65 0.64 0.62 0.57 0.57 0.54 0.58 0.58 0.57 0.47 0.43 0.41 0.41 0.33 0.24 0.22 0.19 0.17 0.15 0.17 0.27 0.53 0.91 1.14 1.22 1.21 1.21
0.39 0.45 0.54 0.66 0.76 0.83 0.84 0.80 0.75 0.69 0.63 0.62 0.59 0.63 0.71 0.73 0.68 0.64 0.63 0.58 0.58 0.58 0.60 0.63 0.64 0.58 0.53 0.47 0.46 0.42 0.38 0.32 0.24 0.21 0.18 0.18 0.19 0.31 0.56 0.84 1.10 1.28 1.35
0.38 0.45 0.57 0.68 0.78 0.85 0.93 0.91 0.82 0.72 0.62 0.59 0.59 0.56 0.57 0.61 0.61 0.56 0.51 0.46 0.46 0.48 0.50 0.52 0.52 0.52 0.53 0.50 0.46 0.41 0.40 0.37 0.31 0.25 0.21 0.19 0.16 0.21 0.32 0.53 0.81 1.18 1.42
0.34 0.40 0.52 0.68 0.80 0.90 0.92 0.97 0.94 0.87 0.75 0.68 0.63 0.54 0.50 0.50 0.49 0.49 0.45 0.37 0.35 0.35 0.35 0.35 0.35 0.35 0.38 0.41 0.39 0.36 0.33 0.33 0.34 0.33 0.30 0.28 0.20 0.19 0.25 0.40 0.61 0.91 1.27
0.32 0.42 0.50 0.67 0.82 0.92 0.96 0.96 1.02 1.04 0.97 0.85 0.72 0.64 0.56 0.52 0.51 0.50 0.49 0.43 0.37 0.36 0.38 0.36 0.33 0.31 0.31 0.32 0.34 0.34 0.31 0.30 0.33 0.37 0.36 0.35 0.30 0.24 0.24 0.32 0.48 0.69 1.00
0.39 0.45 0.54 0.64 0.79 0.88 1.01 1.09 1.04 1.06 1.02 0.94 0.85 0.77 0.68 0.61 0.56 0.57 0.55 0.50 0.45 0.44 0.43 0.43 0.40 0.37 0.33 0.31 0.33 0.36 0.35 0.33 0.33 0.37 0.40 0.36 0.35 0.30 0.27 0.28 0.39 0.58 0.81
0.43 0.48 0.55 0.62 0.73 0.85 0.99 1.15 1.23 1.19 1.10 1.00 0.92 0.86 0.79 0.73 0.63 0.59 0.59 0.55 0.52 0.51 0.49 0.47 0.44 0.42 0.40 0.38 0.38 0.38 0.39 0.37 0.34 0.36 0.39 0.42 0.43 0.39 0.38 0.31 0.32 0.43 0.62
0.46 0.52 0.60 0.69 0.78 0.91 1.06 1.14 1.25 1.27 1.17 1.09 1.02 0.94 0.91 0.86 0.76 0.66 0.61 0.60 0.60 0.58 0.55 0.50 0.49 0.49 0.47 0.43 0.42 0.40 0.40 0.41 0.41 0.39 0.43 0.52 0.52 0.45 0.44 0.44 0.39 0.33 0.39
0.47 0.54 0.60 0.68 0.78 0.90 1.01 1.05 1.02 1.10 1.10 1.02 0.97 0.98 0.97 0.94 0.87 0.79 0.71 0.64 0.65 0.63 0.59 0.53 0.49 0.49 0.47 0.46 0.48 0.46 0.43 0.40 0.37 0.35 0.39 0.51 0.62 0.64 0.59 0.59 0.59 0.51 0.42
0.43 0.51 0.58 0.61 0.69 0.75 0.79 0.89 0.94 0.95 0.99 1.01 0.97 0.97 1.01 1.00 0.91 0.86 0.81 0.73 0.64 0.62 0.61 0.59 0.54 0.50 0.47 0.41 0.45 0.51 0.46 0.42 0.40 0.32 0.28 0.36 0.45 0.53 0.56 0.59 0.65 0.68 0.60
0.42 0.49 0.56 0.61 0.63 0.71 0.79 0.92 1.00 1.06 1.07 1.04 0.99 0.93 0.93 0.97 0.96 0.88 0.82 0.79 0.75 0.69 0.63 0.60 0.58 0.56 0.54 0.47 0.42 0.57 0.63 0.46 0.33 0.24 0.23 0.26 0.29 0.33 0.37 0.43 0.51 0.57 0.64
0.39 0.49 0.57 0.65 0.72 0.73 0.81 0.91 0.89 0.88 0.87 0.81 0.83 0.83 0.87 0.90 0.92 0.90 0.86 0.83 0.77 0.72 0.65 0.60 0.60 0.60 0.62 0.61 0.53 0.49 0.51 0.49 0.52 0.37 0.20 0.19 0.19 0.20 0.21 0.25 0.33 0.40 0.48
0.40 0.50 0.58 0.62 0.74 0.79 0.80 0.88 0.87 0.81 0.78 0.80 0.85 0.89 0.88 0.89 0.92 0.87 0.84 0.82 0.79 0.73 0.68 0.65 0.61 0.63 0.66 0.66 0.62 0.55 0.51 0.44 0.44 0.55 0.36 0.22 0.21 0.20 0.19 0.21 0.23 0.28 0.36
0.38 0.48 0.54 0.61 0.71 0.81 0.81 0.86 0.85 0.81 0.78 0.83 0.87 0.94 0.94 0.94 0.97 0.94 0.85 0.83 0.77 0.69 0.66 0.69 0.67 0.63 0.63 0.64 0.62 0.60 0.63 0.62 0.52 0.55 0.50 0.30 0.26 0.25 0.24 0.23 0.24 0.27 0.34